Location: Apeadero de Los Molinos-Guadarrama
(40.7091°N, 4.0689°W)
Time: 18:04:20
(UTC+00:00)

Daily predictions for brighter satellites

Satellite Brightness Start Highest point End
(mag) Time Altitude Azimuth Time Altitude Azimuth Time Altitude Azimuth
CZ-4 R/B 4.0 19:51:43 10° SW 19:54:49 21° W 19:57:54 10° NW
Cosmos 1689 Rocket 4.2 19:56:33 10° N 19:59:03 30° WNW 20:01:33 10° SW
Cosmos 1933 3.3 19:59:22 10° S 20:03:21 68° E 20:07:21 10° NNE
USA 267 3.6 19:58:08 10° SE 20:04:37 63° SW 20:11:08 10° NW
USA 186 1.6 20:02:44 10° S 20:05:08 56° WSW 20:07:27 10° NNW
Cosmos 1812 4.5 20:02:58 10° SE 20:05:17 16° E 20:07:36 10° NE
Cosmos 1782 3.4 20:03:01 10° SSE 20:06:42 37° E 20:10:24 10° NNE
Cosmos 1833 Rocket 3.7 20:09:01 10° N 20:14:07 33° ENE 20:18:46 12° ESE
Intercosmos 24 3.7 20:13:44 10° S 20:17:25 81° W 20:21:03 10° N
SJ-6B 3.0 20:14:31 10° S 20:18:24 73° WSW 20:22:24 10° NNW
X-37B 0.8 20:16:01 10° WNW 20:19:10 60° SSW 20:21:38 15° SE
Cosmos 1666 Rocket 3.6 20:18:43 10° N 20:23:03 62° E 20:27:20 10° SSE
Resurs 1-3 3.6 20:19:00 10° SSE 20:23:20 67° ENE 20:27:41 10° N
Meteor 1-25 Rocket 4.4 20:19:44 10° N 20:25:38 89° W 20:31:28 10° S
SJ 16-02 2.2 20:22:36 10° SSE 20:26:27 30° E 20:30:19 10° NE
OAO 3 Rocket 4.2 20:23:55 10° SW 20:27:43 25° SSE 20:30:24 15° ESE
Sich 1 3.5 20:24:33 10° NNW 20:28:53 64° W 20:33:12 10° S
CZ-4C R/B 3.2 20:22:21 10° NNW 20:29:38 62° NE 20:36:44 15° SE
Cosmos 1242 Rocket 3.5 20:26:53 10° SSW 20:30:21 50° WNW 20:33:48 10° N
USA 305 4.1 20:27:04 10° NW 20:30:59 34° NNE 20:34:26 12° E
CREW DRAGON DEMO-1 DEB 4.2 20:31:10 10° NNW 20:33:24 24° NNE 20:35:04 14° ENE
GPS 2-04 Rocket1 3.3 20:32:20 10° WSW 20:36:14 41° S 20:38:41 20° ESE
OBJECT-B 2.4 20:33:31 10° SSW 20:36:28 33° W 20:39:28 10° NNW
Cosmos 1151 Rocket 3.0 20:33:30 10° S 20:37:52 89° W 20:42:16 10° N
Cosmos 1500 3.6 20:34:25 10° N 20:37:59 41° ENE 20:40:07 21° SE
MOS 1 4.4 20:32:21 10° S 20:38:00 79° WSW 20:43:44 10° NNW
Cosmos 1777 Rocket 3.9 20:33:56 10° SSW 20:39:07 81° ESE 20:44:21 10° NNE
Cosmos 1709 Rocket 3.9 20:35:55 10° N 20:42:04 84° E 20:48:12 10° S
Ariane Rocket 3.2 20:39:28 10° S 20:44:30 70° WSW 20:49:34 10° NNW
Cosmos 1437 2.5 20:43:18 10° SSW 20:46:06 74° W 20:48:57 10° N
IGS 5A 3.5 20:44:32 20° SSE 20:47:18 60° ENE 20:51:24 10° N
USA 306 3.6 20:46:31 10° NW 20:50:37 44° NNE 20:53:14 20° E
ISS -3.4 20:47:27 10° SSW 20:50:38 40° SE 20:53:48 10° ENE
Tianhe-1 1.6 20:49:35 10° SW 20:52:29 35° SSE 20:52:50 34° SE
NOSS 3-4 (A) 4.4 20:49:29 10° NNW 20:56:17 49° NE 21:01:33 20° ESE
NOSS 3-4 (C) 4.4 20:49:36 10° NNW 20:56:23 49° NE 21:01:39 20° ESE
Landsat 7 3.8 20:53:29 21° SSE 20:56:37 68° ENE 21:01:22 10° N
MetOp-B 4.2 20:53:29 21° SSE 20:57:02 61° ENE 21:02:20 10° N
OE (NEXTSAT) 4.3 20:56:42 10° WNW 21:00:09 68° SSW 21:01:19 37° SE
Cosmos 2082 Rocket 2.9 20:55:27 10° N 21:00:43 39° ENE 21:03:37 23° ESE
Iridium 4 Rocket 4.2 21:00:00 23° SE 21:03:21 46° E 21:08:58 10° NNE
ATLAS 2AS CENTAUR R/B 3.8 21:02:45 10° NNW 21:09:28 36° NE 21:13:55 18° E
Cosmos 1271 Rocket 2.8 21:12:45 35° SSE 21:14:15 62° E 21:18:13 10° NNE
Cosmos 2228 Rocket 3.6 21:13:17 34° SE 21:14:19 39° E 21:18:30 10° NNE
Cosmos 1943 Rocket 3.4 21:15:07 23° E 21:15:07 23° E 21:19:20 10° NE
Resurs 01 Rocket 2.1 21:12:21 19° S 21:15:24 57° W 21:19:47 10° NNW
COSMOS 2406 3.2 21:10:56 10° NNW 21:16:37 81° WSW 21:19:48 27° SSE
Cosmos 158 Rocket 4.2 21:11:53 10° N 21:16:40 51° ENE 21:18:29 34° ESE
USA 307 3.0 21:14:22 10° NW 21:18:37 67° NE 21:20:07 38° ESE
CZ-2C R/B 3.8 21:15:33 10° N 21:20:04 80° WNW 21:23:56 15° SSW
Cosmos 1515 Rocket 3.8 21:18:13 15° SSW 21:21:51 67° W 21:26:13 10° N
Cosmos 2278 Rocket 2.9 21:16:50 10° SW 21:22:22 55° WNW 21:27:56 10° NNE
Delta 2 Rocket 3.9 21:19:20 10° WSW 21:24:12 46° S 21:25:03 41° SSE
Cosmos 2369 Rocket 4.1 21:30:23 14° E 21:30:23 14° E 21:31:58 10° ENE
Meteor 2-6 Rocket 4.4 21:24:33 11° SSW 21:29:43 70° W 21:35:15 10° N
Cosmos 1869 Rocket 4.0 21:26:37 10° N 21:30:43 41° ENE 21:31:13 39° E
USA 308 2.8 21:28:06 10° NW 21:32:24 85° NE 21:33:22 53° SE
SPOT 1/Viking Rocket 3.6 21:30:21 32° S 21:32:51 80° WSW 21:38:04 10° NNW
ATLAS 5 CENTAUR R/B 4.3 21:28:46 10° WNW 21:33:24 23° WSW 21:38:28 10° SSW
H-2A R/B 4.4 21:35:35 10° NNE 21:38:46 32° ENE 21:38:46 32° ENE
Cosmos 1812 4.4 21:37:34 12° SW 21:40:43 32° WNW 21:44:14 10° NNW
Meteor 1-27 Rocket 3.8 21:38:31 35° SSE 21:40:59 68° E 21:46:53 10° NNE
Cosmos 1461 4.4 21:43:44 27° ENE 21:43:44 27° ENE 21:46:21 10° NE
Cosmos 1666 3.1 21:39:26 10° NNW 21:43:05 56° W 21:43:46 47° SW
Cosmos 1707 Rocket 4.4 21:45:45 34° ENE 21:45:45 34° ENE 21:49:18 10° NNE
CARTOSAT-1 3.5 21:46:24 59° S 21:47:12 87° W 21:51:32 10° NNW
Milstar 3 4.0 21:33:53 10° WSW 21:47:53 43° S 21:51:18 33° SE
DNEPR-1 R/B 4.2 21:46:39 30° S 21:49:39 61° ESE 21:54:49 10° NE
CZ-3C R/B 4.3 13:45:32 10° SW 21:50:37 35° SW 21:56:46 26° S
ERS-1 Rocket 2.9 21:49:47 52° SE 21:50:57 74° ENE 21:55:58 10° N
Spot 2 Rocket 3.6 21:50:11 42° S 21:51:50 71° WSW 21:56:53 10° NNW
Meteor 2-12 Rocket 4.3 21:47:42 10° N 21:53:48 85° E 21:55:54 44° SSE
Cosmos 1544 4.0 21:50:32 10° N 21:53:15 37° NE 21:53:15 37° NE
Cosmos 1937 Rocket 3.6 21:54:22 50° ESE 21:54:31 50° ESE 21:59:30 10° NNE
Cosmos 1833 Rocket 3.8 21:52:56 10° NW 21:58:01 36° WSW 22:00:29 24° SSW
Cosmos 44 3.8 21:55:34 10° NNW 22:00:53 54° NE 22:01:55 46° E
ARIANE 5 R/B 3.0 22:01:36 48° SW 22:02:20 54° W 22:06:36 10° NNW
Terra 1.7 22:03:40 64° ESE 22:04:07 68° ENE 22:08:51 10° N
SJ 16-02 3.6 22:01:23 10° WSW 22:05:00 24° WNW 22:08:38 10° N
Cosmos 1900 4.4 22:03:42 29° SW 22:06:19 79° WNW 22:11:24 10° NNE
Cosmos 1680 Rocket 3.4 22:02:20 10° NNW 22:07:41 81° ENE 22:08:30 64° SE
Cosmos 1743 3.6 22:04:18 10° N 22:07:14 40° NE 22:07:14 40° NE
Cosmos 2327 Rocket 4.5 22:01:43 10° N 22:08:11 88° W 22:10:15 46° S
USA 305 3.8 22:06:58 10° WNW 22:10:30 39° WSW 22:10:30 39° WSW
Cosmos 858 Rocket 4.3 22:10:52 68° SE 22:11:13 70° ESE 22:16:25 10° NNE
Cosmos 1340 Rocket 3.1 22:09:03 10° N 22:12:35 62° NNE 22:12:35 62° NNE
Meteor 1-11 Rocket 4.1 22:07:57 10° NNW 22:13:49 61° W 22:15:42 41° SSW
Cosmos 1733 Rocket 3.9 22:13:21 10° N 22:16:47 39° NE 22:16:47 39° NE
CZ-4C R/B 4.1 22:11:22 10° NW 22:18:07 34° WSW 22:21:57 24° SSW
Cosmos 2084 Rocket 4.0 22:18:00 10° NNW 22:22:00 51° NE 22:22:00 51° NE
ERBS 4.5 22:20:20 10° NNW 22:22:24 22° NNE 22:22:24 22° NNE
Cosmos 2297 3.9 22:22:20 34° SW 22:24:49 69° WNW 22:30:31 10° NNE
SPOT 5 3.4 22:24:15 48° SW 22:25:08 54° W 22:30:20 10° NNW
ISS -1.7 22:24:31 10° W 22:27:30 29° NNW 22:30:30 10° NE
Cosmos 2154 Rocket 4.4 22:23:11 10° NNW 22:29:22 57° W 22:31:19 41° SW
SL-24 R/B - RUBIN 2 3.7 22:24:38 10° NNW 22:29:55 88° NW 22:29:55 88° NW
Cosmos 1536 3.9 22:29:40 10° NNW 22:33:07 38° W 22:33:07 38° W
Cosmos 962 Rocket 4.3 22:31:42 10° N 22:37:51 85° W 22:38:47 66° S
Cosmos 1898 Rocket 4.4 22:36:31 29° WSW 22:38:47 46° WNW 22:43:56 10° N
Cosmos 1818 3.5 22:35:24 10° NNW 22:40:54 76° ENE 22:41:05 75° ENE
Cosmos 372 Rocket 4.0 22:43:02 67° NE 22:43:02 67° NE 22:47:33 10° NNE
Cosmos 2082 Rocket 3.4 22:39:51 10° NW 22:44:36 29° WSW 22:45:29 28° WSW
Cosmos 1975 4.3 22:46:27 10° N 22:48:50 32° NNE 22:48:50 32° NNE
Cosmos 1238 Rocket 3.5 22:46:55 10° N 22:52:34 83° NW 22:52:34 83° NW
RESURS DK-1 4.2 22:54:41 10° N 22:57:28 25° NE 22:57:28 25° NE
Cosmos 1943 Rocket 2.9 22:56:34 36° WSW 22:58:25 49° WNW 23:03:52 10° NNE
Meteor 1-18 Rocket 4.1 22:59:38 86° W 22:59:39 86° W 23:05:16 10° N
Cosmos 1862 Rocket 4.4 23:01:17 48° NNW 23:01:17 48° NNW 23:04:37 10° N
ATLAS 2AS CENTAUR R/B 2.9 22:53:43 10° NW 23:00:41 53° WSW 23:01:21 51° SW
Cosmos 2181 Rocket 4.0 23:06:31 65° SW 23:07:12 71° W 23:13:20 10° N
Cosmos 1656 Rocket 3.9 23:13:01 57° NE 23:13:01 57° NE 23:17:31 10° NNE
Cosmos 2369 Rocket 2.2 23:12:07 72° WNW 23:12:14 72° WNW 23:17:54 10° NNE
Cosmos 2366 rocket 3.8 23:06:01 10° N 23:12:15 83° W 23:12:32 80° SW
Cosmos 1125 Rocket 4.5 23:17:31 38° ENE 23:17:31 38° ENE 23:21:01 10° NNE
Cosmos 1607 3.9 23:17:35 79° SW 23:18:01 87° WNW 23:24:34 10° NNE
Cosmos 1867 3.9 23:32:14 62° NW 23:32:14 62° NW 23:37:35 10° NNE
Gblst 52 Del rocket 4.4 23:25:42 10° NW 23:32:33 78° NNE 23:32:50 76° ENE
Cosmos 2218 Rocket 4.5 23:32:58 10° NNW 23:39:00 49° W 23:39:20 49° W
ATLAS CENTAUR R/B 3.6 23:43:28 20° NNE 23:43:28 20° NNE 23:44:48 10° NNE
ALOS 2 3.8 23:43:30 40° N 23:43:30 40° N 23:46:23 10° N
Terra 4.3 23:42:33 12° W 23:42:33 12° W 23:44:10 10° WNW
Gbstr 26 Del rocket 4.3 23:45:06 10° WNW 23:50:52 53° W 23:50:52 53° W
Nadezhda 3 Rocket 3.9 23:52:46 85° NNW 23:52:46 85° NNW 23:58:51 10° N
Cosmos 44 Rocket 4.3 23:48:21 10° NNW 23:53:02 44° NE 23:53:02 44° NE
